Content
SEND FEEDBACK

Daily
Averages
Monthly
Summary
United States of America

TRAILWATERS RECREATION AREA, SOUTH DAKOTA


Home > North America > United States > South Dakota
Elevation: 1460 feet     Latitude: 44 04N     Longitude: 099 28W

WEATHER
 
SELECT A DAY
Number of Records: 180,831;   Date Range: 1/1/95 - 9/21/14
 
SHARE

PRINT THIS DATA

[ ← Previous Day ]
WEATHER ALMANAC - JANUARY 3, 2013
[ Next Day → ]
[ °C ]   °F
Weather ElementAverageHighLow
Temperature19.9 °F27 °F (1:52 pm)12.9 °F (11:52 pm)
Dewpoint13.3 °F17.1 °F (7:52 am)7 °F (11:52 pm)
Humidity76 %89 % (7:52 am)66 % (1:52 pm)
Barometer30.33 in30.39 in (2:52 am)30.22 in (11:52 pm)
Wind Speed8.6 mph20.7 mph (12:52 am)
Weather ElementAverage
Wind DirectionWSW (255.8 °)

Weather ElementTotal
Precipitation---
Heating Degree Days45.1 (Base 65)
Averaged from 24 records on January 3, 2013
WEATHER CONDITIONS BREAKOUT
WIND DIRECTION BREAKOUT
WEATHER BY HOUR - JANUARY 3, 2013
[ °C ]   °F
Local TimeTemperatureDewpointHumidityBarometerVisibilityWind DirectionWind SpeedGust SpeedPrecipitationEventsConditions
12:52 AM21.0 °F16.0 °F81 %30.34 inNorth (10°)20.7 mph
1:52 AM18.0 °F12.9 °F81 %30.37 inNorth (350°)11.5 mph
2:52 AM19.0 °F12.9 °F77 %30.39 inNNW (330°)8.1 mph
3:52 AM19.0 °F12.9 °F77 %30.38 inNW (320°)4.6 mph
4:52 AM19.9 °F14.0 °F78 %30.37 inNW (310°)6.9 mph
5:52 AM19.9 °F15.1 °F81 %30.39 inNW (310°)9.2 mph
6:52 AM21.0 °F16.0 °F81 %30.39 inWNW (300°)4.6 mph
7:52 AM19.9 °F17.1 °F89 %30.38 inWest (260°)6.9 mph
8:52 AM16.0 °F12.0 °F84 %30.38 inWest (260°)8.1 mph
9:52 AM18.0 °F12.0 °F78 %30.38 inWSW (250°)9.2 mph
10:52 AM21.0 °F12.9 °F71 %30.39 inWest (280°)5.8 mph
11:52 AM24.1 °F15.1 °F69 %30.36 inWest (270°)4.6 mph
12:52 PM25.0 °F16.0 °F69 %30.33 inWSW (250°)12.7 mph
1:52 PM27.0 °F17.1 °F66 %30.30 inWSW (240°)12.7 mph
2:52 PM27.0 °F17.1 °F66 %30.29 inWest (260°)10.4 mph
3:52 PM26.1 °F17.1 °F69 %30.30 inWest (260°)6.9 mph
4:52 PM24.1 °F15.1 °F69 %30.29 inWSW (250°)5.8 mph
5:52 PM18.0 °F12.0 °F78 %30.30 inSSW (210°)3.5 mph
6:52 PM16.0 °F10.0 °F77 %30.29 inSW (220°)8.1 mph
7:52 PM16.0 °F10.0 °F77 %30.28 inSW (230°)6.9 mph
8:52 PM17.1 °F10.0 °F74 %30.27 inWest (260°)12.7 mph
9:52 PM17.1 °F10.0 °F74 %30.25 inSW (220°)6.9 mph
10:52 PM15.1 °F10.0 °F80 %30.24 inWSW (250°)10.4 mph
11:52 PM12.9 °F7.0 °F77 %30.22 inWSW (240°)8.1 mph
Hourly data recorded from K9V9, located miles away from Trailwaters Recreation Area, South Dakota







STORIES FROM OUR PARTNERS